When you browse on this site, cookies collect data to enhance your experience and personalize the content and advertising you see.
Visit our Privacy Policy to learn more. By continuing to use the site, you agree to this use of cookies and data.
  • In United Kingdom
  • List of Countries
  • For 7 days
  • Water Temperature
  • Satellite Maps
  • Weather Map
  • Weather Widgets
  • user-avatar
    Login

    Hourly Weather Bouake

    Today, 9 December, Sunday

    Time Temperature Precipitation Wind Pressure Humidity
    00:00 +23°C° 0 mm 0 mps 730 mmHg 29%
    01:00 +23°C° 0 mm 0 mps 730 mmHg 30%
    02:00 +22°C° 0 mm 0 mps 730 mmHg 31%
    03:00 +22°C° 0 mm 0 mps 730 mmHg 33%
    04:00 +21°C° 0 mm 0 mps 730 mmHg 34%
    05:00 +21°C° 0 mm 0 mps 730 mmHg 35%
    06:00 +20°C° 0 mm 0 mps 730 mmHg 41%
    07:00 +23°C° 0 mm 0 mps 731 mmHg 38%
    08:00 +25°C° 0 mm 0 mps 731 mmHg 35%
    09:00 +28°C° 0 mm 0 mps 732 mmHg 32%
    10:00 +30°C° 0 mm 0 mps 732 mmHg 28%
    11:00 +33°C° 0 mm 0 mps 731 mmHg 23%
    12:00 +37°C° 0 mm 1 mps 732 mmHg 19%
    13:00 +37°C° 0 mm 1 mps 731 mmHg 18%
    14:00 +37°C° 0 mm 1 mps 730 mmHg 17%
    15:00 +37°C° 0 mm 1 mps 730 mmHg 16%
    16:00 +35°C° 0 mm 1 mps 730 mmHg 19%
    17:00 +33°C° 0 mm 1 mps 730 mmHg 21%
    18:00 +31°C° 0 mm 1 mps 729 mmHg 24%
    19:00 +30°C° 0 mm 1 mps 730 mmHg 26%
    20:00 +29°C° 0 mm 1 mps 731 mmHg 27%
    21:00 +28°C° 0 mm 1 mps 731 mmHg 29%
    22:00 +27°C° 0 mm 1 mps 731 mmHg 30%
    23:00 +25°C° 0 mm 0 mps 731 mmHg 31%

    Tomorrow, 10 December, Monday

    Time Temperature Precipitation Wind Pressure Humidity
    00:00 +24°C° 0 mm 0 mps 731 mmHg 33%
    01:00 +26°C° 0 mm 1 mps 731 mmHg 35%
    02:00 +25°C° 0 mm 1 mps 731 mmHg 37%
    03:00 +24°C° 0 mm 1 mps 730 mmHg 40%
    04:00 +22°C° 0 mm 0 mps 730 mmHg 42%
    05:00 +21°C° 0 mm 0 mps 731 mmHg 45%
    06:00 +21°C° 0 mm 0 mps 731 mmHg 48%
    07:00 +23°C° 0 mm 0 mps 731 mmHg 44%
    08:00 +26°C° 0 mm 0 mps 732 mmHg 40%
    09:00 +28°C° 0 mm 0 mps 733 mmHg 37%
    10:00 +30°C° 0 mm 0 mps 733 mmHg 31%
    11:00 +34°C° 0 mm 1 mps 732 mmHg 25%
    12:00 +36°C° 0 mm 1 mps 732 mmHg 19%
    13:00 +37°C° 0 mm 1 mps 731 mmHg 18%
    14:00 +37°C° 0 mm 1 mps 730 mmHg 16%
    15:00 +38°C° 0 mm 2 mps 729 mmHg 15%
    16:00 +35°C° 0 mm 1 mps 729 mmHg 18%
    17:00 +33°C° 0 mm 1 mps 729 mmHg 20%
    18:00 +31°C° 0 mm 1 mps 729 mmHg 23%
    19:00 +30°C° 0 mm 1 mps 730 mmHg 24%
    20:00 +29°C° 0 mm 1 mps 730 mmHg 26%
    21:00 +28°C° 0 mm 1 mps 731 mmHg 28%
    22:00 +27°C° 0 mm 1 mps 731 mmHg 29%
    23:00 +27°C° 0 mm 1 mps 730 mmHg 31%

    Day after tomorrow, 11 December, Tuesday

    Time Temperature Precipitation Wind Pressure Humidity
    00:00 +26°C° 0 mm 1 mps 730 mmHg 33%
    01:00 +25°C° 0 mm 1 mps 730 mmHg 40%
    02:00 +24°C° 0 mm 1 mps 729 mmHg 48%
    03:00 +23°C° 0 mm 1 mps 729 mmHg 56%
    04:00 +23°C° 0 mm 1 mps 729 mmHg 61%
    05:00 +23°C° 0 mm 1 mps 729 mmHg 66%
    06:00 +22°C° 0 mm 1 mps 730 mmHg 71%
    07:00 +24°C° 0 mm 1 mps 730 mmHg 67%
    08:00 +26°C° 0 mm 1 mps 731 mmHg 63%
    09:00 +28°C° 0 mm 1 mps 732 mmHg 58%
    10:00 +31°C° 0 mm 1 mps 732 mmHg 49%
    11:00 +34°C° 0 mm 1 mps 731 mmHg 39%
    12:00 +35°C° 0 mm 0 mps 731 mmHg 30%
    13:00 +35°C° 0 mm 0 mps 730 mmHg 28%
    14:00 +37°C° 0 mm 1 mps 729 mmHg 26%
    15:00 +37°C° 0 mm 1 mps 729 mmHg 24%
    16:00 +35°C° 0 mm 1 mps 729 mmHg 28%
    17:00 +33°C° 0 mm 1 mps 729 mmHg 31%
    18:00 +31°C° 0 mm 1 mps 729 mmHg 35%
    19:00 +30°C° 0 mm 1 mps 729 mmHg 37%
    20:00 +29°C° 0 mm 1 mps 730 mmHg 40%
    21:00 +28°C° 0 mm 1 mps 731 mmHg 43%
    22:00 +28°C° 0 mm 1 mps 730 mmHg 48%
    23:00 +27°C° 0 mm 2 mps 730 mmHg 53%

    12 December, Wednesday

    Time Temperature Precipitation Wind Pressure Humidity
    00:00 +27°C° 0 mm 2 mps 730 mmHg 58%
    01:00 +26°C° 0 mm 2 mps 730 mmHg 66%
    02:00 +25°C° 0 mm 2 mps 729 mmHg 75%
    03:00 +25°C° 0 mm 2 mps 729 mmHg 83%
    04:00 +24°C° 0 mm 2 mps 729 mmHg 86%
    05:00 +24°C° 0 mm 1 mps 730 mmHg 89%
    06:00 +24°C° 0 mm 1 mps 730 mmHg 92%
    07:00 +25°C° 0 mm 1 mps 731 mmHg 84%
    08:00 +27°C° 0 mm 1 mps 731 mmHg 75%
    09:00 +29°C° 0 mm 2 mps 732 mmHg 67%
    10:00 +31°C° 0 mm 1 mps 732 mmHg 58%
    11:00 +33°C° 0 mm 1 mps 731 mmHg 48%
    12:00 +36°C° 0 mm 1 mps 731 mmHg 39%
    13:00 +36°C° 0 mm 1 mps 730 mmHg 37%
    14:00 +36°C° 0 mm 1 mps 729 mmHg 36%
    15:00 +35°C° 0 mm 1 mps 728 mmHg 34%
    16:00 +34°C° 0 mm 1 mps 728 mmHg 37%
    17:00 +33°C° 0 mm 1 mps 729 mmHg 40%
    18:00 +32°C° 0 mm 1 mps 729 mmHg 44%
    19:00 +31°C° 0 mm 2 mps 730 mmHg 48%
    20:00 +30°C° 0 mm 2 mps 730 mmHg 52%
    21:00 +29°C° 0 mm 2 mps 731 mmHg 56%
    22:00 +28°C° 0 mm 2 mps 731 mmHg 61%
    23:00 +27°C° 0 mm 2 mps 731 mmHg 67%

    13 December, Thursday

    Time Temperature Precipitation Wind Pressure Humidity
    00:00 +27°C° 0 mm 2 mps 730 mmHg 72%
    01:00 +26°C° 0 mm 2 mps 730 mmHg 75%
    02:00 +25°C° 0 mm 2 mps 730 mmHg 79%
    03:00 +25°C° 0 mm 1 mps 729 mmHg 82%
    04:00 +25°C° 0 mm 1 mps 730 mmHg 84%
    05:00 +24°C° 0 mm 1 mps 730 mmHg 87%
    06:00 +24°C° 0 mm 1 mps 730 mmHg 89%
    07:00 +26°C° 0 mm 1 mps 731 mmHg 81%
    08:00 +27°C° 0 mm 1 mps 732 mmHg 72%
    09:00 +29°C° 0 mm 1 mps 732 mmHg 64%
    10:00 +32°C° 0 mm 1 mps 732 mmHg 54%
    11:00 +35°C° 0 mm 1 mps 731 mmHg 45%
    12:00 +36°C° 0 mm 0 mps 731 mmHg 36%
    13:00 +37°C° 0 mm 1 mps 730 mmHg 36%
    14:00 +36°C° 0 mm 1 mps 729 mmHg 36%
    15:00 +35°C° 0 mm 1 mps 728 mmHg 36%
    16:00 +34°C° 0 mm 1 mps 729 mmHg 39%
    17:00 +33°C° 0 mm 1 mps 729 mmHg 41%
    18:00 +32°C° 0 mm 1 mps 729 mmHg 44%
    19:00 +31°C° 0 mm 1 mps 730 mmHg 47%
    20:00 +30°C° 0 mm 2 mps 730 mmHg 50%
    21:00 +29°C° 0 mm 2 mps 731 mmHg 54%
    22:00 +29°C° 0 mm 2 mps 731 mmHg 59%
    23:00 +28°C° 0 mm 2 mps 730 mmHg 65%

    14 December, Friday

    Time Temperature Precipitation Wind Pressure Humidity
    00:00 +27°C° 0 mm 2 mps 730 mmHg 71%
    01:00 +26°C° 0 mm 2 mps 730 mmHg 75%
    02:00 +26°C° 0 mm 1 mps 729 mmHg 79%
    03:00 +25°C° 0 mm 1 mps 729 mmHg 84%
    04:00 +25°C° 0 mm 1 mps 730 mmHg 86%
    05:00 +25°C° 0 mm 1 mps 730 mmHg 88%
    06:00 +24°C° 0 mm 1 mps 730 mmHg 90%
    07:00 +26°C° 0 mm 1 mps 731 mmHg 81%
    08:00 +26°C° 0 mm 0 mps 732 mmHg 72%
    09:00 +28°C° 0 mm 0 mps 732 mmHg 63%
    10:00 +30°C° 0 mm 0 mps 732 mmHg 55%
    11:00 +34°C° 0 mm 1 mps 732 mmHg 48%
    12:00 +35°C° 0 mm 1 mps 731 mmHg 40%
    13:00 +36°C° 0 mm 1 mps 731 mmHg 36%
    14:00 +37°C° 0 mm 2 mps 730 mmHg 33%
    15:00 +37°C° 0 mm 2 mps 729 mmHg 29%
    16:00 +36°C° 0 mm 2 mps 729 mmHg 31%
    17:00 +35°C° 0 mm 2 mps 729 mmHg 33%
    18:00 +32°C° 0 mm 1 mps 730 mmHg 35%
    19:00 +31°C° 0 mm 1 mps 730 mmHg 38%
    20:00 +30°C° 0 mm 1 mps 730 mmHg 42%
    21:00 +29°C° 0 mm 1 mps 731 mmHg 46%
    22:00 +28°C° 0 mm 1 mps 731 mmHg 51%
    23:00 +27°C° 0 mm 1 mps 730 mmHg 56%
    Show more